[[{"header":{"parameterUnit":"m.s-1","parameterCategory":1,"la1":30.2991,"la2":30.254,"lo1":-89.0895,"lo2":-89.0444,"dy":0.0017,"dx":0.0017,"nx":28,"ny":28,"refTime":"2025-07-26T21:00:00:Z","depth":0,"parameterNumber":2,"parameterNumberName":"U-component_of_WINDS"},"data":[0,0,0,0,0,0,0,0,0,0,0,0,0,0,0,0,0,0,0,0,0,0,0,0,0,0,0,0,0,0,0,0,0,0,0,0,0,0,0,0,0,0,0,0,0,0,0,0,0,0,0,0,0,0,0,0,0,0,4.2136,4.2137,0,4.2202,4.2203,4.2203,4.209,4.2086,4.2082,4.2079,4.2149,4.2154,4.2159,0,0,0,0,0,0,0,0,0,0,0,0,0,4.1916,4.1921,4.2136,4.2137,4.2138,4.2202,4.2203,4.2204,4.2091,4.2086,4.2081,4.2077,4.2147,4.2153,4.216,0,0,0,0,0,0,0,0,0,0,0,0,0,4.2,4.1922,4.2136,4.2089,4.2086,4.2202,4.2203,4.2204,4.2092,4.2086,4.208,4.2075,4.2145,4.2153,4.2161,4.2326,0,0,4.2186,4.2189,0,0,0,0,0,0,0,0,4.1995,4.2008,4.2095,4.2093,4.2089,4.2132,4.215,4.2245,4.2093,4.2089,4.2078,4.2072,4.2148,4.2155,4.218,4.233,4.2333,4.2186,4.2191,4.2195,4.2197,0,0,0,0,0,0,0,4.199,4.2005,4.2162,4.2097,4.2093,4.2066,4.2071,4.2168,4.215,4.2089,4.2081,4.209,4.2145,4.2173,4.2181,4.2334,4.2186,4.2193,4.2198,4.2202,4.2623,4.2629,0,0,0,0,0,0,4.1989,4.2,4.216,4.2164,4.2027,4.2074,4.2081,4.2124,4.2149,4.2147,4.2095,4.2085,4.2162,4.2172,4.2183,4.238,4.2195,4.2202,4.2207,4.2617,4.2625,4.2632,0,0,0,0,0,0,4.1985,4.2004,4.2157,4.208,4.2098,4.2084,4.2134,4.2128,4.2156,4.2153,4.215,4.2127,4.2158,4.2172,4.2292,4.2381,4.2206,4.2214,4.261,4.2619,4.2628,4.2774,0,0,0,0,0,0,4.1979,4.2004,4.2066,4.2082,4.2102,4.2265,4.2139,4.2134,4.217,4.2157,4.2182,4.2181,4.2154,4.228,4.23,4.2389,4.222,4.2602,4.2614,4.2625,4.2761,4.2787,4.281,0,0,0,0,0,4.1971,4.2105,4.2069,4.2089,4.2179,4.227,4.2281,4.2247,4.2177,4.224,4.2239,4.218,4.2368,4.2293,4.2315,4.2407,4.2596,4.2611,4.2624,4.275,4.2782,4.2809,0,0,0,0,0,0,4.21,4.2106,4.2067,4.2209,4.224,4.225,4.2329,4.2282,4.2333,4.2319,4.2276,4.2282,4.2412,4.2421,4.2338,4.257,4.247,4.2489,4.2559,4.2589,4.2613,4.2608,4.2227,0,0,0,0,0,4.2144,4.2216,4.2218,4.2344,4.2361,4.2343,4.2381,4.2352,4.2382,4.2395,4.2402,4.2434,4.25,4.2545,4.2606,4.2762,4.2766,4.2836,4.286,4.288,4.2898,4.2982,4.3013,4.2678,4.2678,4.2678,0,0,4.2238,4.225,4.2298,4.237,4.239,4.2467,4.2354,4.244,4.2496,4.2408,4.2521,4.2528,4.2561,4.2701,4.2762,4.2712,4.2991,4.2898,4.2914,4.2921,4.3,4.3032,4.306,4.2688,4.2686,4.2685,0,0,4.2447,4.2463,4.257,4.2592,4.2624,4.2611,4.2637,4.2655,4.2656,4.2769,4.2704,4.2771,4.2886,4.2913,4.2941,4.3162,4.311,4.3183,4.331,4.3392,4.3419,4.3442,4.3522,4.3551,4.32,4.32,4.32,0,4.256,4.2671,4.2631,4.2721,4.2755,4.2677,4.2786,4.281,4.2861,4.2886,4.2829,4.2972,4.2989,4.3134,4.3188,4.3213,4.3242,4.318,4.3418,4.3441,4.3462,4.3538,4.3568,4.3209,4.3208,4.3207,4.3206,0,4.2809,4.2887,4.297,4.302,4.3063,4.3162,4.3138,4.3186,4.3154,4.3147,4.3264,4.3282,4.3345,4.3377,4.3346,4.3518,4.3486,4.3425,4.3324,4.3503,4.3574,4.3602,4.3221,4.3218,4.3216,4.3214,0,0,4.3101,4.3128,4.3159,4.3181,4.3211,4.3271,4.3367,4.3428,4.3471,4.3509,4.3589,4.3688,4.3631,4.3664,4.3636,4.3708,4.3883,4.3637,4.3638,4.3684,4.4075,4.4122,4.4156,4.3848,4.3854,4.3858,4.4073,0,4.3311,4.3475,4.3442,4.3603,4.3676,4.3604,4.3687,4.3715,4.3712,4.3774,4.377,4.3841,4.376,4.378,4.3848,4.3847,4.3961,4.3831,4.3924,4.3928,4.3919,4.4193,4.4243,4.4445,4.41,4.4104,4.4108,0,4.3577,4.3624,4.3793,4.3811,4.384,4.3916,4.397,4.403,4.406,4.4052,4.4089,4.4047,4.4144,4.4041,4.4174,4.4087,4.4122,4.4128,4.4135,4.4143,4.4029,4.421,4.4508,4.4539,4.415,4.4147,4.4144,0,4.3775,4.3881,4.3995,4.4016,4.404,4.4096,4.4108,4.4133,4.4172,4.4219,4.4244,4.4303,4.4335,4.4382,4.4357,4.4284,4.4495,4.439,4.4493,4.4494,4.4541,4.4539,4.4851,4.4563,4.4562,4.4562,4.4561,0,4.4013,4.412,4.4085,4.4156,4.4273,4.4234,4.4352,4.4356,4.4379,4.445,4.439,4.4459,4.4421,4.4487,4.4468,4.4582,4.4597,4.4594,4.4588,4.4601,4.4601,4.4624,4.461,4.457,4.4568,4.4566,4.4565,0,4.4255,4.4236,4.4356,4.4369,4.4375,4.4461,4.4472,4.4539,4.453,4.4622,4.4641,4.4628,4.4703,4.4682,4.4763,4.475,4.4895,4.487,4.4885,4.4879,4.4983,4.4974,4.5322,4.5366,4.5049,4.5052,4.5054,0,4.4408,4.4489,4.451,4.4553,4.457,4.464,4.4679,4.4644,4.4688,4.4729,4.4791,4.486,4.4913,4.5036,4.5035,4.5097,4.5074,4.5192,4.5083,4.5093,4.5077,4.5073,4.5082,4.5214,4.5217,4.522,4.5223,0,4.4684,4.467,4.4729,4.4785,4.4834,4.4877,4.4914,4.4953,4.492,4.4972,4.5047,4.5089,4.5171,4.5241,4.5298,4.5311,4.5263,4.5257,4.5284,4.5298,4.5303,4.5303,4.4945,4.5249,4.5247,4.5245,4.5243,4.5242,4.4887,4.4955,4.4981,4.5049,4.5073,4.5109,4.5173,4.5172,4.5234,4.5297,4.5273,4.5359,4.5388,4.5459,4.548,4.5548,4.5503,4.5543,4.5553,4.5563,4.5577,4.5292,4.5558,4.5557,4.5556,4.5556,4.5555,0,4.5161,4.5173,4.5236,4.529,4.5343,4.5291,4.533,4.5379,4.5455,4.5486,4.5539,4.5626,4.5693,4.5697,4.5761,4.5814,4.5794,4.5832,4.5829,4.5833,4.5613,4.5583,4.5848,4.5848,4.5848,4.5848,4.5848,4.5848,4.5309,4.5422,4.5412,4.5537,4.5549,4.5632,4.5659,4.5693,4.5717,4.5816,4.5871,4.5873,4.5894,4.5958,4.6018,4.6017,4.6044,4.6092,4.6083,4.5878,4.5848,4.5821,4.5793,4.6098,4.6098,4.6298,4.63,4.6301]},{"header":{"parameterUnit":"m.s-1","parameterCategory":1,"la1":30.2991,"la2":30.254,"lo1":-89.0895,"lo2":-89.0444,"dy":0.0017,"dx":0.0017,"nx":28,"ny":28,"refTime":"2025-07-26T21:00:00:Z","depth":0,"parameterNumber":3,"parameterNumberName":"V-component_of_WINDS"},"data":[0,0,0,0,0,0,0,0,0,0,0,0,0,0,0,0,0,0,0,0,0,0,0,0,0,0,0,0,0,0,0,0,0,0,0,0,0,0,0,0,0,0,0,0,0,0,0,0,0,0,0,0,0,0,0,0,0,0,-1.8203,-1.8204,0,-1.8265,-1.8266,-1.8267,-1.8269,-1.8268,-1.8268,-1.8267,-1.833,-1.8333,-1.8335,0,0,0,0,0,0,0,0,0,0,0,0,0,-1.8086,-1.8088,-1.8203,-1.8204,-1.8204,-1.8265,-1.8266,-1.8267,-1.8269,-1.8268,-1.8267,-1.8267,-1.833,-1.8332,-1.8335,0,0,0,0,0,0,0,0,0,0,0,0,0,-1.8141,-1.8088,-1.8203,-1.8213,-1.8214,-1.8265,-1.8266,-1.8267,-1.8269,-1.8268,-1.8267,-1.8266,-1.8329,-1.8332,-1.8336,-1.838,0,0,-1.8347,-1.8348,0,0,0,0,0,0,0,0,-1.8138,-1.8145,-1.8211,-1.8212,-1.8214,-1.8258,-1.8248,-1.8305,-1.827,-1.8249,-1.8267,-1.8266,-1.8307,-1.8313,-1.8327,-1.8383,-1.8386,-1.8347,-1.8349,-1.8351,-1.8352,0,0,0,0,0,0,0,-1.8134,-1.8143,-1.8227,-1.8212,-1.8214,-1.8214,-1.8221,-1.8259,-1.8283,-1.825,-1.8251,-1.8258,-1.8308,-1.8323,-1.8328,-1.8387,-1.8347,-1.835,-1.8352,-1.8354,-1.8483,-1.8484,0,0,0,0,0,0,-1.8128,-1.814,-1.8225,-1.8229,-1.8173,-1.8217,-1.8225,-1.8245,-1.8283,-1.8288,-1.8259,-1.8258,-1.8318,-1.8324,-1.833,-1.8385,-1.8351,-1.8354,-1.8356,-1.8481,-1.8483,-1.8484,0,0,0,0,0,0,-1.8126,-1.8136,-1.8223,-1.8185,-1.8196,-1.8221,-1.8243,-1.8247,-1.8262,-1.8289,-1.8294,-1.827,-1.8317,-1.8325,-1.8368,-1.8387,-1.8356,-1.8359,-1.848,-1.8482,-1.8484,-1.8494,0,0,0,0,0,0,-1.8122,-1.8135,-1.8152,-1.8185,-1.8198,-1.8259,-1.8245,-1.8249,-1.8268,-1.8268,-1.8301,-1.8305,-1.8317,-1.8362,-1.8371,-1.8391,-1.8362,-1.8478,-1.8481,-1.8483,-1.8492,-1.8496,-1.8499,0,0,0,0,0,-1.8118,-1.8152,-1.8153,-1.8163,-1.822,-1.826,-1.8268,-1.828,-1.827,-1.8287,-1.8305,-1.8304,-1.8384,-1.8367,-1.8377,-1.8398,-1.8477,-1.848,-1.8483,-1.849,-1.8495,-1.8499,0,0,0,0,0,0,-1.8121,-1.8157,-1.8158,-1.8204,-1.8229,-1.8261,-1.8283,-1.8285,-1.8314,-1.8312,-1.8326,-1.8333,-1.8375,-1.8391,-1.8372,-1.8443,-1.8429,-1.8434,-1.8431,-1.8436,-1.844,-1.8435,-1.8365,0,0,0,0,0,-1.8127,-1.8157,-1.8187,-1.8224,-1.8237,-1.8258,-1.8276,-1.8284,-1.831,-1.8321,-1.8342,-1.8367,-1.8398,-1.8418,-1.8448,-1.8494,-1.8501,-1.8514,-1.8518,-1.8521,-1.8525,-1.855,-1.8556,-1.8494,-1.8494,-1.8494,0,0,-1.8139,-1.8163,-1.8181,-1.8225,-1.8246,-1.8277,-1.8267,-1.83,-1.8323,-1.8326,-1.8367,-1.8383,-1.8413,-1.8458,-1.8478,-1.8472,-1.8544,-1.8524,-1.8526,-1.8529,-1.8554,-1.856,-1.8565,-1.8496,-1.8495,-1.8495,0,0,-1.8178,-1.8199,-1.8232,-1.8253,-1.8284,-1.8298,-1.8306,-1.8338,-1.8349,-1.839,-1.8393,-1.8421,-1.8474,-1.8495,-1.8512,-1.856,-1.856,-1.8569,-1.8588,-1.8613,-1.8618,-1.8622,-1.8639,-1.8645,-1.8573,-1.8573,-1.8573,0,-1.8189,-1.8236,-1.8249,-1.8282,-1.8302,-1.8306,-1.834,-1.836,-1.8399,-1.8413,-1.8405,-1.8472,-1.8492,-1.8542,-1.8553,-1.8567,-1.8577,-1.8565,-1.8616,-1.8621,-1.8625,-1.8641,-1.8647,-1.8574,-1.8574,-1.8574,-1.8574,0,-1.8249,-1.8281,-1.8304,-1.8342,-1.8365,-1.8398,-1.8416,-1.8437,-1.8443,-1.8457,-1.85,-1.8525,-1.856,-1.8572,-1.8578,-1.8623,-1.8618,-1.8613,-1.8599,-1.8632,-1.8647,-1.8653,-1.8575,-1.8575,-1.8574,-1.8574,0,0,-1.829,-1.8335,-1.8343,-1.8361,-1.8396,-1.8421,-1.8455,-1.8489,-1.8507,-1.8534,-1.8563,-1.8607,-1.8603,-1.8623,-1.8632,-1.8654,-1.8689,-1.8646,-1.8647,-1.8653,-1.874,-1.8743,-1.875,-1.869,-1.8692,-1.8693,-1.8738,0,-1.8332,-1.8392,-1.8405,-1.8457,-1.8487,-1.8492,-1.8521,-1.8546,-1.8561,-1.8588,-1.8605,-1.8636,-1.8628,-1.8641,-1.8663,-1.868,-1.8707,-1.8677,-1.8717,-1.8718,-1.8709,-1.8758,-1.8762,-1.8803,-1.8744,-1.8745,-1.8746,0,-1.8389,-1.8418,-1.8472,-1.8504,-1.8517,-1.8543,-1.8576,-1.8602,-1.863,-1.8639,-1.8662,-1.8668,-1.8704,-1.8689,-1.8737,-1.8717,-1.8734,-1.8745,-1.8747,-1.8751,-1.8733,-1.8763,-1.8817,-1.8823,-1.8755,-1.8754,-1.8754,0,-1.8413,-1.8466,-1.8505,-1.852,-1.8558,-1.8576,-1.8592,-1.862,-1.8639,-1.8668,-1.8681,-1.8714,-1.8731,-1.8756,-1.8771,-1.8759,-1.8819,-1.8805,-1.8827,-1.8827,-1.8839,-1.8838,-1.8896,-1.8851,-1.8851,-1.8851,-1.885,0,-1.8459,-1.8492,-1.8517,-1.8541,-1.8579,-1.8593,-1.863,-1.8647,-1.8671,-1.8698,-1.8705,-1.8731,-1.8749,-1.8777,-1.8789,-1.8828,-1.8836,-1.8844,-1.8847,-1.8843,-1.8842,-1.8854,-1.8852,-1.8852,-1.8852,-1.8852,-1.8851,0,-1.8492,-1.851,-1.8553,-1.8586,-1.8594,-1.8621,-1.8648,-1.8672,-1.8687,-1.8722,-1.8731,-1.8754,-1.8788,-1.8806,-1.8848,-1.8856,-1.8899,-1.89,-1.889,-1.8891,-1.8912,-1.891,-1.8979,-1.8989,-1.8938,-1.8938,-1.8939,0,-1.852,-1.8546,-1.858,-1.8599,-1.8616,-1.8647,-1.8667,-1.8683,-1.8704,-1.8738,-1.8758,-1.8792,-1.8821,-1.8874,-1.8895,-1.8928,-1.8929,-1.8952,-1.8934,-1.893,-1.893,-1.8928,-1.893,-1.8954,-1.8955,-1.8955,-1.8956,0,-1.8567,-1.8575,-1.8604,-1.8636,-1.866,-1.8687,-1.8713,-1.8728,-1.8748,-1.8771,-1.8806,-1.8828,-1.8871,-1.8905,-1.8939,-1.8956,-1.8959,-1.8961,-1.8968,-1.8964,-1.8957,-1.8961,-1.8898,-1.8959,-1.8959,-1.8959,-1.8958,-1.8958,-1.8598,-1.8621,-1.865,-1.8682,-1.8703,-1.8727,-1.8751,-1.877,-1.8799,-1.8835,-1.8843,-1.8879,-1.8907,-1.8953,-1.8972,-1.9001,-1.8996,-1.9006,-1.9009,-1.9011,-1.9012,-1.8953,-1.9007,-1.9007,-1.9007,-1.9007,-1.9007,0,-1.8645,-1.8664,-1.8694,-1.873,-1.8755,-1.8756,-1.8785,-1.8807,-1.8839,-1.8865,-1.8892,-1.8932,-1.8965,-1.8989,-1.9023,-1.9041,-1.9044,-1.905,-1.9048,-1.9052,-1.9014,-1.9004,-1.9047,-1.9047,-1.9047,-1.9047,-1.9047,-1.9047,-1.8673,-1.8712,-1.8723,-1.8773,-1.8792,-1.8828,-1.8844,-1.8867,-1.8887,-1.8932,-1.8959,-1.8974,-1.8999,-1.9035,-1.9065,-1.9072,-1.9084,-1.909,-1.9096,-1.9059,-1.9055,-1.9051,-1.9042,-1.9092,-1.9092,-1.9132,-1.9132,-1.9132]}]]